• In India
  • List of Countries
  • For 7 days
  • Water Temperature
  • Satellite Maps
  • Weather Map
  • Weather Widgets
  • user-avatar
    Login

    Hourly Weather Ksiezomierz

    Today, 28 May, Monday

    Time Temperature Precipitation Wind Pressure Humidity
    00:00 +17°C° 0 mm 2 mps 749 mmHg 91%
    01:00 +17°C° 0 mm 2 mps 749 mmHg 92%
    02:00 +16°C° 0 mm 2 mps 749 mmHg 93%
    03:00 +16°C° 0 mm 2 mps 749 mmHg 93%
    04:00 +16°C° 0 mm 2 mps 749 mmHg 93%
    05:00 +17°C° 0 mm 2 mps 749 mmHg 87%
    06:00 +19°C° 0 mm 3 mps 750 mmHg 81%
    07:00 +20°C° 0 mm 3 mps 750 mmHg 74%
    08:00 +22°C° 0 mm 3 mps 750 mmHg 67%
    09:00 +23°C° 0 mm 4 mps 750 mmHg 60%
    10:00 +25°C° 0 mm 4 mps 750 mmHg 54%
    11:00 +25°C° 0 mm 5 mps 750 mmHg 52%
    12:00 +26°C° 0 mm 5 mps 750 mmHg 51%
    13:00 +26°C° 0 mm 5 mps 750 mmHg 50%
    14:00 +26°C° 0 mm 5 mps 749 mmHg 51%
    15:00 +26°C° 0 mm 5 mps 749 mmHg 53%
    16:00 +25°C° 0 mm 5 mps 749 mmHg 54%
    17:00 +23°C° 0 mm 5 mps 749 mmHg 60%
    18:00 +21°C° 0 mm 4 mps 749 mmHg 66%
    19:00 +20°C° 0 mm 3 mps 749 mmHg 72%
    20:00 +19°C° 0 mm 3 mps 749 mmHg 74%
    21:00 +18°C° 0 mm 3 mps 749 mmHg 76%
    22:00 +16°C° 0 mm 3 mps 749 mmHg 78%
    23:00 +16°C° 0 mm 3 mps 749 mmHg 79%

    Tomorrow, 29 May, Tuesday

    Time Temperature Precipitation Wind Pressure Humidity
    00:00 +14°C° 0 mm 3 mps 749 mmHg 80%
    01:00 +14°C° 0 mm 3 mps 749 mmHg 81%
    02:00 +14°C° 0 mm 3 mps 749 mmHg 82%
    03:00 +13°C° 0 mm 3 mps 749 mmHg 83%
    04:00 +13°C° 0 mm 4 mps 749 mmHg 84%
    05:00 +15°C° 0 mm 4 mps 749 mmHg 79%
    06:00 +17°C° 0 mm 5 mps 749 mmHg 73%
    07:00 +20°C° 0 mm 5 mps 749 mmHg 68%
    08:00 +21°C° 0 mm 5 mps 749 mmHg 63%
    09:00 +22°C° 0 mm 5 mps 749 mmHg 59%
    10:00 +24°C° 0 mm 6 mps 749 mmHg 54%
    11:00 +24°C° 0 mm 6 mps 748 mmHg 52%
    12:00 +26°C° 0 mm 6 mps 748 mmHg 50%
    13:00 +26°C° 0 mm 6 mps 748 mmHg 49%
    14:00 +26°C° 0 mm 6 mps 747 mmHg 50%
    15:00 +26°C° 0 mm 5 mps 747 mmHg 52%
    16:00 +26°C° 0 mm 5 mps 746 mmHg 54%
    17:00 +23°C° 0 mm 5 mps 746 mmHg 61%
    18:00 +22°C° 0 mm 4 mps 746 mmHg 67%
    19:00 +21°C° 0 mm 3 mps 746 mmHg 74%
    20:00 +20°C° 0 mm 3 mps 746 mmHg 77%
    21:00 +19°C° 0 mm 3 mps 746 mmHg 80%
    22:00 +18°C° 0 mm 3 mps 746 mmHg 84%
    23:00 +17°C° 0 mm 3 mps 746 mmHg 85%

    Day after tomorrow, 30 May, Wednesday

    Time Temperature Precipitation Wind Pressure Humidity
    00:00 +17°C° 0 mm 3 mps 746 mmHg 87%
    01:00 +16°C° 0 mm 3 mps 746 mmHg 89%
    02:00 +16°C° 0 mm 3 mps 745 mmHg 90%
    03:00 +14°C° 0 mm 3 mps 745 mmHg 91%
    04:00 +14°C° 0 mm 3 mps 745 mmHg 92%
    05:00 +17°C° 0 mm 3 mps 745 mmHg 85%
    06:00 +19°C° 0 mm 3 mps 745 mmHg 79%
    07:00 +20°C° 0 mm 3 mps 745 mmHg 72%
    08:00 +22°C° 0 mm 3 mps 745 mmHg 66%
    09:00 +25°C° 0 mm 3 mps 745 mmHg 59%
    10:00 +27°C° 0 mm 3 mps 745 mmHg 52%
    11:00 +28°C° 0 mm 3 mps 745 mmHg 50%
    12:00 +28°C° 0 mm 3 mps 744 mmHg 47%
    13:00 +29°C° 0 mm 3 mps 744 mmHg 44%
    14:00 +29°C° 0 mm 3 mps 744 mmHg 46%
    15:00 +28°C° 0 mm 2 mps 743 mmHg 47%
    16:00 +28°C° 0 mm 2 mps 743 mmHg 49%
    17:00 +27°C° 0.1 mm 2 mps 743 mmHg 56%
    18:00 +25°C° 0.1 mm 2 mps 743 mmHg 64%
    19:00 +23°C° 0.1 mm 2 mps 742 mmHg 71%
    20:00 +21°C° 0.2 mm 2 mps 742 mmHg 76%
    21:00 +20°C° 0.2 mm 2 mps 742 mmHg 82%
    22:00 +18°C° 0.2 mm 2 mps 742 mmHg 87%
    23:00 +18°C° 0 mm 2 mps 742 mmHg 88%

    31 May, Thursday

    Time Temperature Precipitation Wind Pressure Humidity
    00:00 +17°C° 0 mm 2 mps 742 mmHg 89%
    01:00 +18°C° 0 mm 1 mps 742 mmHg 90%
    02:00 +18°C° 0 mm 1 mps 742 mmHg 90%
    03:00 +16°C° 0 mm 1 mps 741 mmHg 90%
    04:00 +16°C° 0 mm 1 mps 741 mmHg 90%
    05:00 +19°C° 0 mm 1 mps 741 mmHg 84%
    06:00 +20°C° 0 mm 1 mps 741 mmHg 78%
    07:00 +22°C° 0 mm 1 mps 741 mmHg 73%
    08:00 +23°C° 0.1 mm 1 mps 741 mmHg 67%
    09:00 +25°C° 0.1 mm 1 mps 741 mmHg 61%
    10:00 +26°C° 0.1 mm 1 mps 741 mmHg 54%
    11:00 +27°C° 0.1 mm 1 mps 741 mmHg 52%
    12:00 +28°C° 0.1 mm 1 mps 741 mmHg 49%
    13:00 +29°C° 0.1 mm 1 mps 741 mmHg 47%
    14:00 +28°C° 0.5 mm 2 mps 740 mmHg 52%
    15:00 +27°C° 0.5 mm 3 mps 740 mmHg 57%
    16:00 +26°C° 0.5 mm 4 mps 740 mmHg 63%
    17:00 +23°C° 0.3 mm 4 mps 740 mmHg 71%
    18:00 +21°C° 0.3 mm 4 mps 741 mmHg 78%
    19:00 +20°C° 0.3 mm 4 mps 741 mmHg 86%
    20:00 +19°C° 0 mm 4 mps 741 mmHg 86%
    21:00 +17°C° 0 mm 5 mps 742 mmHg 85%
    22:00 +16°C° 0 mm 5 mps 742 mmHg 85%
    23:00 +15°C° 0 mm 5 mps 742 mmHg 83%

    1 June, Friday

    Time Temperature Precipitation Wind Pressure Humidity
    00:00 +14°C° 0 mm 5 mps 743 mmHg 81%
    01:00 +13°C° 0 mm 5 mps 743 mmHg 79%
    02:00 +12°C° 0 mm 5 mps 743 mmHg 80%
    03:00 +12°C° 0 mm 4 mps 744 mmHg 80%
    04:00 +11°C° 0 mm 4 mps 744 mmHg 81%
    05:00 +12°C° 0 mm 5 mps 745 mmHg 76%
    06:00 +13°C° 0 mm 5 mps 745 mmHg 71%
    07:00 +15°C° 0 mm 5 mps 746 mmHg 66%
    08:00 +16°C° 0 mm 5 mps 746 mmHg 61%
    09:00 +17°C° 0 mm 6 mps 746 mmHg 55%
    10:00 +19°C° 0 mm 6 mps 746 mmHg 49%
    11:00 +20°C° 0 mm 6 mps 746 mmHg 48%
    12:00 +20°C° 0 mm 6 mps 746 mmHg 47%
    13:00 +21°C° 0 mm 5 mps 746 mmHg 46%
    14:00 +21°C° 0 mm 5 mps 746 mmHg 47%
    15:00 +21°C° 0 mm 5 mps 746 mmHg 49%
    16:00 +20°C° 0 mm 5 mps 746 mmHg 50%
    17:00 +19°C° 0 mm 5 mps 747 mmHg 56%
    18:00 +18°C° 0 mm 4 mps 747 mmHg 61%
    19:00 +16°C° 0 mm 3 mps 747 mmHg 67%
    20:00 +14°C° 0 mm 3 mps 747 mmHg 68%
    21:00 +13°C° 0 mm 3 mps 748 mmHg 68%
    22:00 +12°C° 0 mm 3 mps 748 mmHg 69%
    23:00 +11°C° 0 mm 3 mps 748 mmHg 70%

    2 June, Saturday

    Time Temperature Precipitation Wind Pressure Humidity
    00:00 +10°C° 0 mm 3 mps 749 mmHg 71%
    01:00 +9°C° 0 mm 3 mps 749 mmHg 72%
    02:00 +9°C° 0 mm 3 mps 749 mmHg 72%
    03:00 +8°C° 0 mm 3 mps 749 mmHg 73%
    04:00 +8°C° 0 mm 3 mps 749 mmHg 74%
    05:00 +10°C° 0 mm 3 mps 749 mmHg 68%
    06:00 +12°C° 0 mm 4 mps 750 mmHg 63%
    07:00 +13°C° 0 mm 4 mps 750 mmHg 57%
    08:00 +15°C° 0 mm 4 mps 750 mmHg 54%
    09:00 +17°C° 0 mm 4 mps 750 mmHg 50%
    10:00 +18°C° 0 mm 4 mps 750 mmHg 46%
    11:00 +18°C° 0 mm 4 mps 750 mmHg 45%
    12:00 +19°C° 0 mm 4 mps 750 mmHg 44%
    13:00 +20°C° 0 mm 4 mps 750 mmHg 42%
    14:00 +20°C° 0 mm 4 mps 749 mmHg 44%
    15:00 +20°C° 0 mm 4 mps 749 mmHg 45%
    16:00 +19°C° 0 mm 4 mps 749 mmHg 46%
    17:00 +18°C° 0 mm 3 mps 749 mmHg 53%
    18:00 +17°C° 0 mm 2 mps 749 mmHg 60%
    19:00 +15°C° 0 mm 2 mps 749 mmHg 66%
    20:00 +14°C° 0 mm 2 mps 749 mmHg 69%
    21:00 +13°C° 0 mm 1 mps 749 mmHg 72%
    22:00 +12°C° 0 mm 1 mps 750 mmHg 74%
    23:00 +11°C° 0 mm 1 mps 749 mmHg 76%
    Show more